{"data":{"norad_id":69028,"epoch":"2026-05-25T03:35:08.102112Z","epoch_age_seconds":59255,"freshness":"FRESH","line1":"1 69028U 26101D   26145.14939933  .00090211  00000+0  59926-3 0  9990","line2":"2 69028  97.2849 359.8959 0001011  87.6882 272.4499 15.75192587  3017","mean_motion":15.75192587,"eccentricity":0.0001011,"inclination_deg":97.2849,"raan_deg":359.8959,"arg_perigee_deg":87.6882,"mean_anomaly_deg":272.4499,"bstar":0.00059926,"rev_number":301,"period_min":91.417393141909,"perigee_km":343.40359210353,"apogee_km":344.7628250297,"semimajor_km":6722.2202085666,"source":"CELESTRAK","updated_at":"2026-05-25T13:38:22.079546Z"}}